TimeMDT,TemperatureF,Dew PointF,Humidity,Sea Level PressureIn,VisibilityMPH,Wind Direction,Wind SpeedMPH,Gust SpeedMPH,PrecipitationIn,Events,Conditions,WindDirDegrees,DateUTC
12:51 AM,68.0,19.0,15,29.88,10.0,West,8.1,-,N/A,,Mostly Cloudy,260,2013-03-29 06:51:00
1:51 AM,68.0,18.0,15,29.89,10.0,West,6.9,-,N/A,,Mostly Cloudy,260,2013-03-29 07:51:00
2:51 AM,70.0,16.0,13,29.88,10.0,West,11.5,-,N/A,,Mostly Cloudy,260,2013-03-29 08:51:00
3:51 AM,66.9,17.1,15,29.88,10.0,WSW,6.9,-,N/A,,Mostly Cloudy,250,2013-03-29 09:51:00
4:51 AM,66.0,17.1,15,29.88,10.0,WSW,5.8,-,N/A,,Mostly Cloudy,240,2013-03-29 10:51:00
5:51 AM,59.0,19.0,21,29.92,10.0,South,6.9,-,N/A,,Mostly Cloudy,180,2013-03-29 11:51:00
6:51 AM,57.0,19.9,24,29.94,10.0,Variable,3.5,-,N/A,,Mostly Cloudy,0,2013-03-29 12:51:00
7:51 AM,60.1,19.9,21,29.96,10.0,South,6.9,-,N/A,,Mostly Cloudy,170,2013-03-29 13:51:00
8:51 AM,64.0,21.0,19,29.96,10.0,NE,3.5,-,N/A,,Overcast,40,2013-03-29 14:51:00
9:51 AM,66.9,19.0,16,29.97,10.0,NE,3.5,-,N/A,,Mostly Cloudy,50,2013-03-29 15:51:00
10:51 AM,71.1,18.0,13,29.98,10.0,WSW,6.9,-,N/A,,Scattered Clouds,240,2013-03-29 16:51:00
11:51 AM,75.9,18.0,11,29.96,10.0,ENE,4.6,-,N/A,,Scattered Clouds,60,2013-03-29 17:51:00
12:51 PM,77.0,19.0,11,29.93,10.0,Calm,Calm,-,N/A,,Scattered Clouds,0,2013-03-29 18:51:00
1:51 PM,78.1,17.1,10,29.91,10.0,Variable,4.6,-,N/A,,Partly Cloudy,0,2013-03-29 19:51:00
2:51 PM,80.1,17.1,9,29.87,10.0,WSW,8.1,-,N/A,,Partly Cloudy,250,2013-03-29 20:51:00
3:51 PM,82.0,17.1,9,29.85,10.0,WNW,17.3,21.9,N/A,,Partly Cloudy,290,2013-03-29 21:51:00
4:51 PM,82.0,15.1,8,29.83,10.0,NW,10.4,23.0,N/A,,Partly Cloudy,310,2013-03-29 22:51:00
5:51 PM,81.0,15.1,8,29.85,10.0,WSW,10.4,-,N/A,,Partly Cloudy,250,2013-03-29 23:51:00
6:51 PM,80.1,12.9,8,29.86,10.0,WNW,12.7,-,N/A,,Scattered Clouds,290,2013-03-30 00:51:00
7:51 PM,77.0,10.9,8,29.87,10.0,WNW,8.1,-,N/A,,Scattered Clouds,300,2013-03-30 01:51:00
8:51 PM,73.9,12.9,10,29.88,10.0,NW,6.9,-,N/A,,Mostly Cloudy,310,2013-03-30 02:51:00
9:51 PM,73.0,12.0,10,29.89,10.0,WNW,8.1,-,N/A,,Mostly Cloudy,300,2013-03-30 03:51:00
10:51 PM,70.0,12.0,11,29.90,10.0,NW,5.8,-,N/A,,Scattered Clouds,310,2013-03-30 04:51:00
11:51 PM,70.0,10.9,10,29.90,10.0,NW,5.8,-,N/A,,Partly Cloudy,310,2013-03-30 05:51:00